Starlink 30086

operational
NORAD ID: 56297 Int'l Des: 2023-056 Owner: SPXS Country: US Constellation: starlink
LEOCIRCULAR

关于 Starlink 30086

正在加载描述...

实时位置

正在加载3D地球...

即将过境

高度历史

Altitude vs Time

uPlot chart will show altitude changes over time

两行轨道根数

1 56297U 23056M 25258.19638808 .00001879 00000-0 15412-3 0 9991
2 56297 43.0028 83.9155 0000968 256.1918 103.8817 15.02539149133626
Epoch: Sep 15, 2025 • Age: 21 hours

当前状态

高度 562.9 km
速度 7.59 km/s
星下点 43.13°N, 148.7°E
发射日期 Apr 19, 2023
运行时间 2.4 years
类型 internet

技术详情

分类 Payload
质量 730.00 kg
干质量 700.00 kg
总质量 730.00 kg
长度 0.30 m
直径 4.10 m
跨度 29.00 m
形状 Box + pan
制造商 SPXS
平台类型 Starlink V2M
阶段状态 In Orbit
所有者/国家 SPXS/US

大型星座

Loading constellations...